Time,TemperatureF,DewpointF,PressureIn,WindDirection,WindDirectionDegrees,WindSpeedMPH,WindSpeedGustMPH,Humidity,HourlyPrecipIn,Conditions,Clouds,dailyrainin,SolarRadiationWatts/m^2,SoftwareType,DateUTC
2013-06-11 00:00:00,63.0,63.0,29.78,SE,136,6.0,-999.0,100,-99.99,,,-99.99,0.000000,,2013-06-11 04:00:00,
2013-06-11 00:53:00,63.0,63.0,29.78,SE,136,6.0,-999.0,100,-99.99,,,-99.99,0.000000,,2013-06-11 04:53:00,
2013-06-11 04:00:00,62.0,62.0,29.73,SSE,162,4.0,-999.0,100,-99.99,,,-99.99,0.000000,,2013-06-11 08:00:00,
2013-06-11 04:52:00,62.0,62.0,29.73,SSE,162,4.0,-999.0,100,-99.99,,,-99.99,0.000000,,2013-06-11 08:52:00,
2013-06-11 05:00:00,61.0,61.0,29.71,South,188,2.0,-999.0,100,-99.99,,,-99.99,0.000000,,2013-06-11 09:00:00,
2013-06-11 05:53:00,61.0,61.0,29.71,South,188,2.0,-999.0,100,-99.99,,,-99.99,0.000000,,2013-06-11 09:53:00,
2013-06-11 06:00:00,61.0,61.0,29.71,SSE,168,3.0,-999.0,100,-99.99,,,-99.99,5.190000,,2013-06-11 10:00:00,
2013-06-11 06:52:00,61.0,61.0,29.71,SSE,168,3.0,-999.0,100,-99.99,,,-99.99,5.190000,,2013-06-11 10:52:00,
2013-06-11 07:00:00,63.0,63.0,29.71,SSE,167,5.0,-999.0,100,-99.99,,,-99.99,49.549999,,2013-06-11 11:00:00,
2013-06-11 07:52:00,63.0,63.0,29.71,SSE,167,5.0,-999.0,100,-99.99,,,-99.99,49.549999,,2013-06-11 11:52:00,
2013-06-11 08:00:00,63.0,63.0,29.70,South,174,5.0,-999.0,100,-99.99,,,-99.99,44.770000,,2013-06-11 12:00:00,
2013-06-11 08:52:00,63.0,63.0,29.70,South,174,5.0,-999.0,100,-99.99,,,-99.99,44.770000,,2013-06-11 12:52:00,
2013-06-11 09:00:00,65.0,63.0,29.70,SSW,196,4.0,-999.0,93,-99.99,,,-99.99,78.029999,,2013-06-11 13:00:00,
2013-06-11 09:52:00,65.0,63.0,29.70,SSW,196,4.0,-999.0,93,-99.99,,,-99.99,78.029999,,2013-06-11 13:52:00,
2013-06-11 10:00:00,62.0,61.0,29.70,West,267,8.0,-999.0,99,-99.99,,,-99.99,64.029999,,2013-06-11 14:00:00,
2013-06-11 10:53:00,62.0,61.0,29.70,West,267,8.0,-999.0,99,-99.99,,,-99.99,64.029999,,2013-06-11 14:53:00,
2013-06-11 11:00:00,62.0,61.0,29.71,West,266,9.0,-999.0,94,-99.99,,,-99.99,179.000000,,2013-06-11 15:00:00,
2013-06-11 11:53:00,62.0,61.0,29.71,West,266,9.0,-999.0,94,-99.99,,,-99.99,179.000000,,2013-06-11 15:53:00,
2013-06-11 12:00:00,62.0,60.0,29.72,West,272,8.0,-999.0,93,-99.99,,,-99.99,148.100006,,2013-06-11 16:00:00,
2013-06-11 12:53:00,62.0,60.0,29.72,West,272,8.0,-999.0,93,-99.99,,,-99.99,148.100006,,2013-06-11 16:53:00,
2013-06-11 13:00:00,63.0,61.0,29.74,WNW,284,10.0,-999.0,91,-99.99,,,-99.99,243.399994,,2013-06-11 17:00:00,
2013-06-11 13:53:00,63.0,61.0,29.74,WNW,284,10.0,-999.0,91,-99.99,,,-99.99,243.399994,,2013-06-11 17:53:00,
2013-06-11 14:00:00,65.0,60.0,29.74,WNW,291,12.0,-999.0,86,-99.99,,,-99.99,413.100006,,2013-06-11 18:00:00,
2013-06-11 14:52:00,65.0,60.0,29.74,WNW,291,12.0,-999.0,86,-99.99,,,-99.99,413.100006,,2013-06-11 18:52:00,
2013-06-11 15:00:00,63.0,61.0,29.75,WNW,292,10.0,-999.0,92,-99.99,,,-99.99,312.399994,,2013-06-11 19:00:00,
2013-06-11 15:53:00,63.0,61.0,29.75,WNW,292,10.0,-999.0,92,-99.99,,,-99.99,312.399994,,2013-06-11 19:53:00,
2013-06-11 16:00:00,65.0,61.0,29.75,WNW,301,11.0,-999.0,86,-99.99,,,-99.99,437.700012,,2013-06-11 20:00:00,
2013-06-11 16:52:00,65.0,61.0,29.75,WNW,301,11.0,-999.0,86,-99.99,,,-99.99,437.700012,,2013-06-11 20:52:00,
2013-06-11 17:00:00,65.0,60.0,29.76,WNW,293,9.0,-999.0,83,-99.99,,,-99.99,204.100006,,2013-06-11 21:00:00,
2013-06-11 17:53:00,65.0,60.0,29.76,WNW,293,9.0,-999.0,83,-99.99,,,-99.99,204.100006,,2013-06-11 21:53:00,
2013-06-11 18:00:00,65.0,58.0,29.77,WNW,301,11.0,-999.0,78,-99.99,,,-99.99,176.800003,,2013-06-11 22:00:00,
2013-06-11 18:52:00,65.0,58.0,29.77,WNW,301,11.0,-999.0,78,-99.99,,,-99.99,176.800003,,2013-06-11 22:52:00,
2013-06-11 19:00:00,65.0,58.0,29.79,WNW,295,9.0,-999.0,77,-99.99,,,-99.99,107.800003,,2013-06-11 23:00:00,
2013-06-11 19:52:00,65.0,58.0,29.79,WNW,295,9.0,-999.0,77,-99.99,,,-99.99,107.800003,,2013-06-11 23:52:00,
2013-06-11 20:00:00,64.0,58.0,29.79,WNW,301,7.0,-999.0,81,-99.99,,,-99.99,47.320000,,2013-06-12 00:00:00,
2013-06-11 20:52:00,64.0,58.0,29.79,WNW,301,7.0,-999.0,81,-99.99,,,-99.99,47.320000,,2013-06-12 00:52:00,
2013-06-11 21:00:00,64.0,58.0,29.81,NW,305,6.0,-999.0,82,-99.99,,,-99.99,5.930000,,2013-06-12 01:00:00,
2013-06-11 21:52:00,64.0,58.0,29.81,NW,305,6.0,-999.0,82,-99.99,,,-99.99,5.930000,,2013-06-12 01:52:00,
2013-06-11 22:00:00,63.0,55.0,29.83,NW,306,8.0,-999.0,77,-99.99,,,-99.99,0.000000,,2013-06-12 02:00:00,
2013-06-11 22:52:00,63.0,55.0,29.83,NW,306,8.0,-999.0,77,-99.99,,,-99.99,0.000000,,2013-06-12 02:52:00,